When you browse on this site, cookies collect data to enhance your experience and personalize the content and advertising you see.
Visit our Privacy Policy to learn more. By continuing to use the site, you agree to this use of cookies and data.
  • In Sweden
  • List of Countries
  • For 7 days
  • Water Temperature
  • Weather Map
  • Weather Widgets
  • user-avatar
    Login

    Hourly Weather Chihuahua

    Today, 23 February, Sunday

    Time Temperature Precipitation Wind Pressure Humidity
    00:00 +18°C° 0 mm 3 mps 642 mmHg 43%
    01:00 +17°C° 0 mm 3 mps 642 mmHg 46%
    02:00 +16°C° 0 mm 3 mps 641 mmHg 49%
    03:00 +16°C° 0 mm 3 mps 641 mmHg 53%
    04:00 +15°C° 0 mm 2 mps 640 mmHg 56%
    05:00 +14°C° 0 mm 2 mps 640 mmHg 59%
    06:00 +14°C° 0 mm 3 mps 640 mmHg 57%
    07:00 +15°C° 0 mm 4 mps 641 mmHg 54%
    08:00 +15°C° 0 mm 5 mps 641 mmHg 52%
    09:00 +17°C° 0 mm 7 mps 642 mmHg 44%
    10:00 +19°C° 0 mm 9 mps 642 mmHg 37%
    11:00 +22°C° 0 mm 11 mps 643 mmHg 29%
    12:00 +23°C° 0 mm 11 mps 642 mmHg 24%
    13:00 +23°C° 0 mm 11 mps 642 mmHg 19%
    14:00 +24°C° 0 mm 11 mps 641 mmHg 13%
    15:00 +23°C° 0 mm 11 mps 641 mmHg 13%
    16:00 +22°C° 0 mm 11 mps 641 mmHg 13%
    17:00 +21°C° 0 mm 11 mps 640 mmHg 13%
    18:00 +18°C° 0 mm 10 mps 641 mmHg 14%
    19:00 +17°C° 0 mm 9 mps 641 mmHg 16%
    20:00 +15°C° 0 mm 7 mps 641 mmHg 17%
    21:00 +15°C° 0 mm 6 mps 641 mmHg 19%
    22:00 +14°C° 0 mm 5 mps 640 mmHg 21%
    23:00 +13°C° 0 mm 4 mps 640 mmHg 24%

    Tomorrow, 24 February, Monday

    Time Temperature Precipitation Wind Pressure Humidity
    00:00 +13°C° 0 mm 3 mps 640 mmHg 24%
    01:00 +13°C° 0 mm 2 mps 640 mmHg 25%
    02:00 +13°C° 0 mm 1 mps 640 mmHg 25%
    03:00 +12°C° 0 mm 1 mps 640 mmHg 30%
    04:00 +11°C° 0 mm 1 mps 640 mmHg 35%
    05:00 +11°C° 0 mm 1 mps 640 mmHg 40%
    06:00 +11°C° 0 mm 1 mps 640 mmHg 42%
    07:00 +11°C° 0 mm 1 mps 640 mmHg 44%
    08:00 +11°C° 0 mm 1 mps 641 mmHg 45%
    09:00 +13°C° 0 mm 1 mps 641 mmHg 37%
    10:00 +14°C° 0 mm 1 mps 641 mmHg 30%
    11:00 +16°C° 0 mm 1 mps 641 mmHg 22%
    12:00 +18°C° 0 mm 2 mps 641 mmHg 18%
    13:00 +19°C° 0 mm 2 mps 641 mmHg 15%
    14:00 +20°C° 0 mm 2 mps 641 mmHg 11%
    15:00 +21°C° 0 mm 2 mps 640 mmHg 11%
    16:00 +21°C° 0 mm 2 mps 640 mmHg 10%
    17:00 +21°C° 0 mm 2 mps 640 mmHg 9%
    18:00 +19°C° 0 mm 2 mps 640 mmHg 12%
    19:00 +18°C° 0 mm 1 mps 640 mmHg 15%
    20:00 +16°C° 0 mm 1 mps 639 mmHg 18%
    21:00 +15°C° 0 mm 1 mps 639 mmHg 20%
    22:00 +13°C° 0 mm 0 mps 639 mmHg 22%
    23:00 +12°C° 0 mm 0 mps 639 mmHg 24%

    Day after tomorrow, 25 February, Tuesday

    Time Temperature Precipitation Wind Pressure Humidity
    00:00 +12°C° 0 mm 0 mps 639 mmHg 24%
    01:00 +12°C° 0 mm 1 mps 639 mmHg 24%
    02:00 +12°C° 0 mm 1 mps 638 mmHg 24%
    03:00 +11°C° 0 mm 1 mps 638 mmHg 26%
    04:00 +10°C° 0 mm 1 mps 638 mmHg 27%
    05:00 +9°C° 0 mm 1 mps 638 mmHg 29%
    06:00 +11°C° 0 mm 1 mps 638 mmHg 27%
    07:00 +12°C° 0 mm 1 mps 639 mmHg 25%
    08:00 +13°C° 0 mm 2 mps 640 mmHg 23%
    09:00 +14°C° 0 mm 2 mps 641 mmHg 22%
    10:00 +15°C° 0 mm 2 mps 641 mmHg 22%
    11:00 +17°C° 0 mm 3 mps 641 mmHg 22%
    12:00 +18°C° 0 mm 3 mps 641 mmHg 20%
    13:00 +19°C° 0 mm 3 mps 641 mmHg 18%
    14:00 +20°C° 0 mm 3 mps 641 mmHg 16%
    15:00 +19°C° 0 mm 4 mps 641 mmHg 17%
    16:00 +19°C° 0 mm 5 mps 641 mmHg 17%
    17:00 +18°C° 0 mm 7 mps 641 mmHg 18%
    18:00 +16°C° 0 mm 7 mps 641 mmHg 18%
    19:00 +14°C° 0 mm 7 mps 642 mmHg 18%
    20:00 +11°C° 0 mm 7 mps 642 mmHg 17%
    21:00 +10°C° 0 mm 5 mps 642 mmHg 19%
    22:00 +10°C° 0 mm 4 mps 643 mmHg 20%
    23:00 +9°C° 0 mm 3 mps 643 mmHg 21%

    26 February, Wednesday

    Time Temperature Precipitation Wind Pressure Humidity
    00:00 +8°C° 0 mm 2 mps 643 mmHg 22%
    01:00 +7°C° 0 mm 2 mps 643 mmHg 23%
    02:00 +7°C° 0 mm 2 mps 643 mmHg 25%
    03:00 +6°C° 0 mm 2 mps 643 mmHg 28%
    04:00 +6°C° 0 mm 1 mps 643 mmHg 31%
    05:00 +5°C° 0 mm 1 mps 643 mmHg 35%
    06:00 +6°C° 0 mm 1 mps 643 mmHg 37%
    07:00 +6°C° 0 mm 1 mps 644 mmHg 38%
    08:00 +6°C° 0 mm 1 mps 644 mmHg 40%
    09:00 +6°C° 0 mm 2 mps 644 mmHg 36%
    10:00 +8°C° 0 mm 2 mps 644 mmHg 33%
    11:00 +9°C° 0 mm 3 mps 644 mmHg 29%
    12:00 +10°C° 0 mm 3 mps 644 mmHg 28%
    13:00 +11°C° 0 mm 4 mps 643 mmHg 26%
    14:00 +12°C° 0 mm 4 mps 642 mmHg 24%
    15:00 +12°C° 0 mm 4 mps 642 mmHg 25%
    16:00 +13°C° 0 mm 4 mps 642 mmHg 25%
    17:00 +13°C° 0 mm 4 mps 642 mmHg 25%
    18:00 +12°C° 0 mm 3 mps 642 mmHg 28%
    19:00 +12°C° 0 mm 2 mps 642 mmHg 30%
    20:00 +11°C° 0 mm 1 mps 643 mmHg 32%
    21:00 +11°C° 0 mm 1 mps 642 mmHg 34%
    22:00 +10°C° 0 mm 1 mps 642 mmHg 35%
    23:00 +9°C° 0 mm 1 mps 642 mmHg 36%

    27 February, Thursday

    Time Temperature Precipitation Wind Pressure Humidity
    00:00 +9°C° 0 mm 1 mps 642 mmHg 38%
    01:00 +9°C° 0 mm 1 mps 641 mmHg 40%
    02:00 +8°C° 0 mm 1 mps 641 mmHg 41%
    03:00 +8°C° 0 mm 1 mps 641 mmHg 43%
    04:00 +8°C° 0 mm 1 mps 641 mmHg 45%
    05:00 +8°C° 0 mm 1 mps 640 mmHg 47%
    06:00 +8°C° 0 mm 1 mps 641 mmHg 45%
    07:00 +9°C° 0 mm 1 mps 641 mmHg 44%
    08:00 +10°C° 0 mm 1 mps 642 mmHg 42%
    09:00 +11°C° 0 mm 1 mps 642 mmHg 38%
    10:00 +13°C° 0 mm 1 mps 643 mmHg 34%
    11:00 +15°C° 0 mm 1 mps 643 mmHg 30%
    12:00 +16°C° 0 mm 2 mps 643 mmHg 28%
    13:00 +17°C° 0 mm 3 mps 643 mmHg 25%
    14:00 +19°C° 0 mm 4 mps 642 mmHg 23%
    15:00 +17°C° 0 mm 5 mps 642 mmHg 22%
    16:00 +17°C° 0 mm 5 mps 642 mmHg 22%
    17:00 +17°C° 0 mm 6 mps 642 mmHg 22%
    18:00 +15°C° 0 mm 5 mps 643 mmHg 23%
    19:00 +14°C° 0 mm 4 mps 644 mmHg 24%
    20:00 +13°C° 0 mm 3 mps 644 mmHg 25%
    21:00 +13°C° 0 mm 2 mps 644 mmHg 27%
    22:00 +13°C° 0 mm 2 mps 645 mmHg 30%
    23:00 +12°C° 0 mm 1 mps 645 mmHg 32%

    28 February, Friday

    Time Temperature Precipitation Wind Pressure Humidity
    00:00 +11°C° 0 mm 1 mps 645 mmHg 31%
    01:00 +11°C° 0 mm 1 mps 644 mmHg 31%
    02:00 +10°C° 0 mm 1 mps 644 mmHg 31%
    03:00 +9°C° 0 mm 0 mps 644 mmHg 32%
    04:00 +9°C° 0 mm 0 mps 644 mmHg 32%
    05:00 +8°C° 0 mm 0 mps 644 mmHg 33%
    06:00 +9°C° 0 mm 0 mps 645 mmHg 30%
    07:00 +10°C° 0 mm 0 mps 645 mmHg 28%
    08:00 +11°C° 0 mm 0 mps 646 mmHg 25%
    09:00 +14°C° 0 mm 1 mps 646 mmHg 24%
    10:00 +15°C° 0 mm 1 mps 647 mmHg 23%
    11:00 +16°C° 0 mm 2 mps 647 mmHg 22%
    12:00 +17°C° 0 mm 2 mps 647 mmHg 21%
    13:00 +18°C° 0 mm 3 mps 646 mmHg 20%
    14:00 +19°C° 0 mm 3 mps 646 mmHg 19%
    15:00 +19°C° 0 mm 3 mps 646 mmHg 19%
    16:00 +19°C° 0 mm 4 mps 646 mmHg 20%
    17:00 +17°C° 0 mm 5 mps 646 mmHg 20%
    18:00 +17°C° 0 mm 4 mps 646 mmHg 21%
    19:00 +17°C° 0 mm 4 mps 646 mmHg 21%
    20:00 +16°C° 0 mm 3 mps 647 mmHg 22%
    21:00 +14°C° 0 mm 3 mps 647 mmHg 22%
    22:00 +15°C° 0 mm 2 mps 647 mmHg 23%
    23:00 +14°C° 0 mm 1 mps 647 mmHg 24%
    Show more